Погода в Медведево

Россия / Республика Марий Эл     56°37′59″N   47°48′11″E
темп.,
°C
ветер,
м/с
пор.,
м/с
влажн.,
%
обл.,
%
осадки,
мм/ч
давл.,
гПа
погр.,
м
14 апреля, ср
ср1400:00+4ю36879 0.0 103079
03:00+3ю248847 0.0 103058
06:00+3ю258959 0.0 102971
09:00+12ю35674 0.0 1028211
12:00+16ю46525 0.0 1027670
15:00+17ю47515 0.0 1025926
18:00+12ююв22775 0.0 102436
21:00+10ю38895 0.0 1024127
15 апреля, чт
чт1500:00+9ю39933 0.0 1022149
03:00+8ю23945 0.0 102251
06:00+8ю25950 0.0 1021107
09:00+14ю34753 0.0 1020433
12:00+17ююз2362100 0.1 10191092
15:00+18юз2257100 1.4 10181179
18:00+13с2684100 3.8 1018140
21:00+9ссв61288100 4.1 1021537
16 апреля, пт
пт1600:00+7св61383100 0.0 1022606
03:00+5св5128272 0.0 1024587
06:00+4св5128174 0.0 1025588
09:00+7всв696859 0.0 1026705
12:00+10всв68515 0.0 10261043
15:00+11св67412 0.0 10271253
18:00+9св59480 0.0 1027616
21:00+5св310640 0.0 1028246
17 апреля, сб
сб1700:00+3св310710 0.0 1029215
03:00+1св38750 0.0 1030168
06:00+2св38705 0.0 1030225
09:00+8св46460 0.0 1031750
12:00+10св45390 0.0 10301370
15:00+11ссв45380 0.0 10291512
18:00+9ссв25522 0.0 1028113
21:00+5ссв22673 0.0 102918
18 апреля, вс
вс1800:00+4с24740 0.0 102977
03:00+3ссв26805 0.0 1029110
06:00+3ссв27775 0.0 1030198
09:00+9ссв46575 0.0 1029815
12:00+11ссв464769 0.0 10291772
15:00+9ссв4656100 0.0 10301112
18:00+7св476476 0.0 1031971
21:00+3ссв39728 0.0 1032295